This is the latest recevied weather packets stored in our database for station/object KG2V. If no packets are shown the sender has not sent any weather packets the latest 10 day(s).
| Time | Temp. | Humidity | Pressure | Rain* | Wind** | Luminosity | Snow |
|---|---|---|---|---|---|---|---|
| 1778188238 | 10.56° C | 61% | 1006 hPa | 0 mm | - | 139 W/m² | - |
| 1778187936 | 11.11° C | 60% | 1006.1 hPa | 0 mm | - | 143 W/m² | - |
| 1778187632 | 11.67° C | 61% | 1005.9 hPa | 0 mm | - | 169 W/m² | - |
| 1778187329 | 11.11° C | 62% | 1005.8 hPa | 0 mm | - | 284 W/m² | - |
| 1778187025 | 11.11° C | 60% | 1006 hPa | 0 mm | - | 167 W/m² | - |
| 1778186721 | 11.11° C | 59% | 1005.9 hPa | 0 mm | - | 140 W/m² | - |
| 1778186419 | 10.56° C | 61% | 1005.9 hPa | 0 mm | - | 133 W/m² | - |
| 1778186117 | 10.56° C | 59% | 1005.9 hPa | 0 mm | - | 184 W/m² | - |
| 1778185814 | 10.56° C | 62% | 1005.8 hPa | 0 mm | - | 199 W/m² | - |
| 1778185509 | 10.56° C | 65% | 1006 hPa | 0 mm | - | 93 W/m² | - |
| 1778185206 | 10.56° C | 65% | 1005.9 hPa | 0 mm | - | 79 W/m² | - |
| 1778184901 | 10.56° C | 63% | 1006 hPa | 0 mm | - | 102 W/m² | - |
| 1778184598 | 10.56° C | 65% | 1005.9 hPa | 0 mm | - | 131 W/m² | - |
| 1778184294 | 10.56° C | 64% | 1006 hPa | 0 mm | - | 142 W/m² | - |
| 1778183989 | 10.56° C | 65% | 1005.9 hPa | 0 mm | - | 135 W/m² | - |
| 1778183688 | 10.56° C | 65% | 1006.2 hPa | 0 mm | - | 142 W/m² | - |
| 1778183385 | 10° C | 66% | 1006.4 hPa | 0 mm | - | 160 W/m² | - |
| 1778183081 | 10.56° C | 63% | 1006.1 hPa | 0 mm | - | 175 W/m² | - |
| 1778182777 | 10.56° C | 63% | 1006.5 hPa | 0 mm | - | 206 W/m² | - |
| 1778182474 | 11.11° C | 65% | 1006.2 hPa | 0 mm | - | 235 W/m² | - |
| 1778182171 | 10.56° C | 64% | 1006.4 hPa | 0 mm | - | 307 W/m² | - |
| 1778181867 | 10° C | 65% | 1006.4 hPa | 0 mm | - | 156 W/m² | - |
| 1778181564 | 10.56° C | 62% | 1006.6 hPa | 0 mm | - | 174 W/m² | - |
| 1778181260 | 10° C | 64% | 1006.5 hPa | 0 mm | - | 171 W/m² | - |
| 1778180957 | 10° C | 65% | 1006.6 hPa | 0 mm | - | 158 W/m² | - |
* Rain latest hour (hover to see other rain measurements)
** Current wind speed in m/s (hover to see current wind gust speed)